owner,sensor,date,latitude,longitude,vertical_datum,mass_concentration_of_oxygen_in_sea_water,qcFlag 
DISL,ioos:station:DISL:DISL:1,2017-12-01T00:00:00Z,30.2513,-88.0778,2.27,6.77,1111122 
DISL,ioos:station:DISL:DISL:1,2017-12-01T01:30:00Z,30.2513,-88.0778,2.279,7.38,1111122 
DISL,ioos:station:DISL:DISL:1,2017-12-01T02:30:00Z,30.2513,-88.0778,2.288,8.33,1111122 
DISL,ioos:station:DISL:DISL:1,2017-12-01T03:30:00Z,30.2513,-88.0778,2.277,9.0,1111122 
DISL,ioos:station:DISL:DISL:1,2017-12-01T04:30:00Z,30.2513,-88.0778,2.234,9.01,1111122 
DISL,ioos:station:DISL:DISL:1,2017-12-01T05:30:00Z,30.2513,-88.0778,2.174,8.93,1111122 
DISL,ioos:station:DISL:DISL:1,2017-12-01T06:30:00Z,30.2513,-88.0778,2.124,8.74,1111122 
DISL,ioos:station:DISL:DISL:1,2017-12-01T07:30:00Z,30.2513,-88.0778,2.072,8.57,1111122 
DISL,ioos:station:DISL:DISL:1,2017-12-01T08:30:00Z,30.2513,-88.0778,2.038,9.36,1111122 
DISL,ioos:station:DISL:DISL:1,2017-12-01T09:30:00Z,30.2513,-88.0778,1.997,9.26,1111122 
DISL,ioos:station:DISL:DISL:1,2017-12-01T10:30:00Z,30.2513,-88.0778,1.958,9.2,1111122 
DISL,ioos:station:DISL:DISL:1,2017-12-01T11:30:00Z,30.2513,-88.0778,1.921,9.26,1111122 
DISL,ioos:station:DISL:DISL:1,2017-12-01T12:30:00Z,30.2513,-88.0778,1.913,8.95,1111122 
DISL,ioos:station:DISL:DISL:1,2017-12-01T13:30:00Z,30.2513,-88.0778,1.861,8.8,1111122 
DISL,ioos:station:DISL:DISL:1,2017-12-01T14:30:00Z,30.2513,-88.0778,1.923,7.83,1111122 
DISL,ioos:station:DISL:DISL:1,2017-12-01T15:30:00Z,30.2513,-88.0778,1.955,7.8,1111122 
DISL,ioos:station:DISL:DISL:1,2017-12-01T16:30:00Z,30.2513,-88.0778,1.994,8.0,1111122 
DISL,ioos:station:DISL:DISL:1,2017-12-01T17:30:00Z,30.2513,-88.0778,2.016,8.32,1111122 
DISL,ioos:station:DISL:DISL:1,2017-12-01T18:30:00Z,30.2513,-88.0778,2.059,8.54,1111122 
DISL,ioos:station:DISL:DISL:1,2017-12-01T19:30:00Z,30.2513,-88.0778,2.088,7.09,1111122 
DISL,ioos:station:DISL:DISL:1,2017-12-01T20:30:00Z,30.2513,-88.0778,2.141,6.51,1111122 
DISL,ioos:station:DISL:DISL:1,2017-12-01T21:30:00Z,30.2513,-88.0778,2.181,6.22,1111122 
DISL,ioos:station:DISL:DISL:1,2017-12-01T22:30:00Z,30.2513,-88.0778,2.232,6.15,1111122 
DISL,ioos:station:DISL:DISL:1,2017-12-01T23:30:00Z,30.2513,-88.0778,2.288,6.18,1111122 
DISL,ioos:station:DISL:DISL:1,2017-12-02T00:30:00Z,30.2513,-88.0778,2.336,6.31,1111122 
DISL,ioos:station:DISL:DISL:1,2017-12-02T01:30:00Z,30.2513,-88.0778,2.364,7.85,1111122 
DISL,ioos:station:DISL:DISL:1,2017-12-02T02:30:00Z,30.2513,-88.0778,2.368,8.44,1111122 
DISL,ioos:station:DISL:DISL:1,2017-12-02T03:30:00Z,30.2513,-88.0778,2.345,8.64,1111122 
DISL,ioos:station:DISL:DISL:1,2017-12-02T04:30:00Z,30.2513,-88.0778,2.299,8.63,1111122 
DISL,ioos:station:DISL:DISL:1,2017-12-02T05:00:00Z,30.2513,-88.0778,2.271,8.7,1111122 
DISL,ioos:station:DISL:DISL:1,2017-12-02T06:30:00Z,30.2513,-88.0778,2.195,8.68,1111122 
DISL,ioos:station:DISL:DISL:1,2017-12-02T07:00:00Z,30.2513,-88.0778,2.165,8.53,1111122 
DISL,ioos:station:DISL:DISL:1,2017-12-02T08:30:00Z,30.2513,-88.0778,2.061,9.37,1111122 
DISL,ioos:station:DISL:DISL:1,2017-12-02T10:30:00Z,30.2513,-88.0778,1.969,9.15,1111122 
DISL,ioos:station:DISL:DISL:1,2017-12-02T12:30:00Z,30.2513,-88.0778,1.911,9.03,1111122 
DISL,ioos:station:DISL:DISL:1,2017-12-02T13:30:00Z,30.2513,-88.0778,1.879,8.9,1111122 
DISL,ioos:station:DISL:DISL:1,2017-12-02T14:30:00Z,30.2513,-88.0778,1.912,8.71,1111122 
DISL,ioos:station:DISL:DISL:1,2017-12-02T15:30:00Z,30.2513,-88.0778,1.922,8.87,1111122 
DISL,ioos:station:DISL:DISL:1,2017-12-02T16:30:00Z,30.2513,-88.0778,1.96,8.25,1111122 
DISL,ioos:station:DISL:DISL:1,2017-12-02T17:30:00Z,30.2513,-88.0778,1.985,8.53,1111122 
DISL,ioos:station:DISL:DISL:1,2017-12-02T18:30:00Z,30.2513,-88.0778,2.046,8.92,1111122 
DISL,ioos:station:DISL:DISL:1,2017-12-02T19:30:00Z,30.2513,-88.0778,2.082,9.14,1111122 
DISL,ioos:station:DISL:DISL:1,2017-12-02T20:30:00Z,30.2513,-88.0778,2.109,7.33,1111122 
DISL,ioos:station:DISL:DISL:1,2017-12-02T21:30:00Z,30.2513,-88.0778,2.154,6.99,1111122 
DISL,ioos:station:DISL:DISL:1,2017-12-02T22:30:00Z,30.2513,-88.0778,2.223,6.65,1111122 
DISL,ioos:station:DISL:DISL:1,2017-12-02T23:30:00Z,30.2513,-88.0778,2.248,6.74,1111122 
DISL,ioos:station:DISL:DISL:1,2017-12-03T00:30:00Z,30.2513,-88.0778,2.335,6.86,1111122 
DISL,ioos:station:DISL:DISL:1,2017-12-03T01:30:00Z,30.2513,-88.0778,2.362,6.85,1111122 
DISL,ioos:station:DISL:DISL:1,2017-12-03T02:30:00Z,30.2513,-88.0778,2.383,7.01,1111122 
DISL,ioos:station:DISL:DISL:1,2017-12-03T03:30:00Z,30.2513,-88.0778,2.405,7.94,1111122 
DISL,ioos:station:DISL:DISL:1,2017-12-03T04:00:00Z,30.2513,-88.0778,2.408,8.71,1111122 
DISL,ioos:station:DISL:DISL:1,2017-12-03T05:30:00Z,30.2513,-88.0778,2.323,8.71,1111122 
DISL,ioos:station:DISL:DISL:1,2017-12-03T06:30:00Z,30.2513,-88.0778,2.262,8.73,1111122 
DISL,ioos:station:DISL:DISL:1,2017-12-03T07:30:00Z,30.2513,-88.0778,2.187,8.6,1111122 
DISL,ioos:station:DISL:DISL:1,2017-12-03T08:30:00Z,30.2513,-88.0778,2.108,9.0,1111122 
DISL,ioos:station:DISL:DISL:1,2017-12-03T09:30:00Z,30.2513,-88.0778,2.052,8.81,1111122 
DISL,ioos:station:DISL:DISL:1,2017-12-03T10:30:00Z,30.2513,-88.0778,2.003,8.83,1111122 
DISL,ioos:station:DISL:DISL:1,2017-12-03T11:30:00Z,30.2513,-88.0778,1.956,8.78,1111122 
DISL,ioos:station:DISL:DISL:1,2017-12-03T12:30:00Z,30.2513,-88.0778,1.917,8.75,1111122 
DISL,ioos:station:DISL:DISL:1,2017-12-03T13:30:00Z,30.2513,-88.0778,1.896,8.78,1111122 
DISL,ioos:station:DISL:DISL:1,2017-12-03T14:30:00Z,30.2513,-88.0778,1.882,8.83,1111122 
DISL,ioos:station:DISL:DISL:1,2017-12-03T15:30:00Z,30.2513,-88.0778,1.898,8.95,1111122 
DISL,ioos:station:DISL:DISL:1,2017-12-03T16:30:00Z,30.2513,-88.0778,1.911,8.63,1111122 
DISL,ioos:station:DISL:DISL:1,2017-12-03T17:30:00Z,30.2513,-88.0778,1.948,8.46,1111122 
DISL,ioos:station:DISL:DISL:1,2017-12-03T18:30:00Z,30.2513,-88.0778,1.991,8.67,1111122 
DISL,ioos:station:DISL:DISL:1,2017-12-03T19:30:00Z,30.2513,-88.0778,2.052,8.99,1111122 
DISL,ioos:station:DISL:DISL:1,2017-12-03T20:30:00Z,30.2513,-88.0778,2.097,7.57,1111122 
DISL,ioos:station:DISL:DISL:1,2017-12-03T21:30:00Z,30.2513,-88.0778,2.118,7.43,1111122 
DISL,ioos:station:DISL:DISL:1,2017-12-03T22:30:00Z,30.2513,-88.0778,2.231,7.12,1111122 
DISL,ioos:station:DISL:DISL:1,2017-12-03T23:30:00Z,30.2513,-88.0778,2.31,7.22,1111122 
DISL,ioos:station:DISL:DISL:1,2017-12-04T00:30:00Z,30.2513,-88.0778,2.365,7.23,1111122 
DISL,ioos:station:DISL:DISL:1,2017-12-04T01:30:00Z,30.2513,-88.0778,2.42,7.26,1111122 
DISL,ioos:station:DISL:DISL:1,2017-12-04T02:00:00Z,30.2513,-88.0778,2.43,7.34,1111122 
DISL,ioos:station:DISL:DISL:1,2017-12-04T03:30:00Z,30.2513,-88.0778,2.471,8.14,1111122 
DISL,ioos:station:DISL:DISL:1,2017-12-04T04:30:00Z,30.2513,-88.0778,2.449,8.8,1111122 
DISL,ioos:station:DISL:DISL:1,2017-12-04T05:30:00Z,30.2513,-88.0778,2.436,8.65,1111122 
DISL,ioos:station:DISL:DISL:1,2017-12-04T06:30:00Z,30.2513,-88.0778,2.368,8.47,1111122 
DISL,ioos:station:DISL:DISL:1,2017-12-04T07:30:00Z,30.2513,-88.0778,2.28,8.71,1111122 
DISL,ioos:station:DISL:DISL:1,2017-12-04T08:30:00Z,30.2513,-88.0778,2.216,8.65,1111122 
DISL,ioos:station:DISL:DISL:1,2017-12-04T09:30:00Z,30.2513,-88.0778,2.111,8.67,1111122 
DISL,ioos:station:DISL:DISL:1,2017-12-04T10:30:00Z,30.2513,-88.0778,2.046,8.45,1111122 
DISL,ioos:station:DISL:DISL:1,2017-12-04T11:30:00Z,30.2513,-88.0778,1.998,8.39,1111122 
DISL,ioos:station:DISL:DISL:1,2017-12-04T12:30:00Z,30.2513,-88.0778,1.957,8.45,1111122 
DISL,ioos:station:DISL:DISL:1,2017-12-04T13:30:00Z,30.2513,-88.0778,1.911,8.56,1111122 
DISL,ioos:station:DISL:DISL:1,2017-12-04T14:30:00Z,30.2513,-88.0778,1.893,8.71,1111122 
DISL,ioos:station:DISL:DISL:1,2017-12-04T15:30:00Z,30.2513,-88.0778,1.898,8.79,1111122 
DISL,ioos:station:DISL:DISL:1,2017-12-04T16:30:00Z,30.2513,-88.0778,1.921,9.02,1111122 
DISL,ioos:station:DISL:DISL:1,2017-12-04T17:30:00Z,30.2513,-88.0778,1.926,8.67,1111122 
DISL,ioos:station:DISL:DISL:1,2017-12-04T18:30:00Z,30.2513,-88.0778,1.971,8.61,1111122 
DISL,ioos:station:DISL:DISL:1,2017-12-04T19:30:00Z,30.2513,-88.0778,2.015,8.76,1111122 
DISL,ioos:station:DISL:DISL:1,2017-12-04T20:30:00Z,30.2513,-88.0778,2.086,8.69,1111122 
DISL,ioos:station:DISL:DISL:1,2017-12-04T21:30:00Z,30.2513,-88.0778,2.138,8.04,1111122 
DISL,ioos:station:DISL:DISL:1,2017-12-04T22:30:00Z,30.2513,-88.0778,2.199,7.98,1111122 
DISL,ioos:station:DISL:DISL:1,2017-12-04T23:30:00Z,30.2513,-88.0778,2.271,7.85,1111122 
DISL,ioos:station:DISL:DISL:1,2017-12-05T00:30:00Z,30.2513,-88.0778,2.361,7.81,1111122 
DISL,ioos:station:DISL:DISL:1,2017-12-05T01:30:00Z,30.2513,-88.0778,2.446,7.68,1111122 
DISL,ioos:station:DISL:DISL:1,2017-12-05T02:30:00Z,30.2513,-88.0778,2.502,7.55,1111122 
DISL,ioos:station:DISL:DISL:1,2017-12-05T03:30:00Z,30.2513,-88.0778,2.534,7.43,1111122 
DISL,ioos:station:DISL:DISL:1,2017-12-05T04:30:00Z,30.2513,-88.0778,2.571,7.38,1111122 
DISL,ioos:station:DISL:DISL:1,2017-12-05T05:30:00Z,30.2513,-88.0778,2.567,7.45,1111122 
DISL,ioos:station:DISL:DISL:1,2017-12-05T06:30:00Z,30.2513,-88.0778,2.536,8.18,1111122 
DISL,ioos:station:DISL:DISL:1,2017-12-05T07:30:00Z,30.2513,-88.0778,2.465,8.18,1111122 
DISL,ioos:station:DISL:DISL:1,2017-12-05T08:30:00Z,30.2513,-88.0778,2.39,8.15,1111122 
DISL,ioos:station:DISL:DISL:1,2017-12-05T09:30:00Z,30.2513,-88.0778,2.296,8.16,1111122 
DISL,ioos:station:DISL:DISL:1,2017-12-05T10:30:00Z,30.2513,-88.0778,2.228,7.79,1111122 
DISL,ioos:station:DISL:DISL:1,2017-12-05T11:30:00Z,30.2513,-88.0778,2.155,8.11,1111122 
DISL,ioos:station:DISL:DISL:1,2017-12-05T12:30:00Z,30.2513,-88.0778,2.104,8.23,1111122 
DISL,ioos:station:DISL:DISL:1,2017-12-05T13:30:00Z,30.2513,-88.0778,2.056,8.31,1111122 
DISL,ioos:station:DISL:DISL:1,2017-12-05T14:30:00Z,30.2513,-88.0778,1.989,8.46,1111122 
DISL,ioos:station:DISL:DISL:1,2017-12-05T15:30:00Z,30.2513,-88.0778,1.962,8.64,1111122 
DISL,ioos:station:DISL:DISL:1,2017-12-05T16:30:00Z,30.2513,-88.0778,1.941,8.42,1111122 
DISL,ioos:station:DISL:DISL:1,2017-12-05T17:30:00Z,30.2513,-88.0778,1.951,8.41,1111122 
DISL,ioos:station:DISL:DISL:1,2017-12-05T18:30:00Z,30.2513,-88.0778,1.967,8.09,1111122 
DISL,ioos:station:DISL:DISL:1,2017-12-05T19:30:00Z,30.2513,-88.0778,1.996,7.99,1111122 
DISL,ioos:station:DISL:DISL:1,2017-12-05T20:30:00Z,30.2513,-88.0778,2.067,8.34,1111122 
DISL,ioos:station:DISL:DISL:1,2017-12-05T21:30:00Z,30.2513,-88.0778,2.098,8.42,1111122 
DISL,ioos:station:DISL:DISL:1,2017-12-05T22:30:00Z,30.2513,-88.0778,2.153,8.46,1111122 
DISL,ioos:station:DISL:DISL:1,2017-12-05T23:30:00Z,30.2513,-88.0778,2.23,7.8,1111122 
DISL,ioos:station:DISL:DISL:1,2017-12-06T00:30:00Z,30.2513,-88.0778,2.298,7.34,1111122 
DISL,ioos:station:DISL:DISL:1,2017-12-06T01:30:00Z,30.2513,-88.0778,2.403,7.98,1111122 
DISL,ioos:station:DISL:DISL:1,2017-12-06T02:30:00Z,30.2513,-88.0778,2.449,7.41,1111122 
DISL,ioos:station:DISL:DISL:1,2017-12-06T03:30:00Z,30.2513,-88.0778,2.504,7.67,1111122 
DISL,ioos:station:DISL:DISL:1,2017-12-06T04:30:00Z,30.2513,-88.0778,2.567,8.3,1111122 
DISL,ioos:station:DISL:DISL:1,2017-12-06T05:30:00Z,30.2513,-88.0778,2.528,8.24,1111122 
DISL,ioos:station:DISL:DISL:1,2017-12-06T06:30:00Z,30.2513,-88.0778,2.609,8.43,1111122 
DISL,ioos:station:DISL:DISL:1,2017-12-06T07:30:00Z,30.2513,-88.0778,2.409,8.12,1111122 
DISL,ioos:station:DISL:DISL:1,2017-12-06T08:30:00Z,30.2513,-88.0778,2.367,8.05,1111122 
DISL,ioos:station:DISL:DISL:1,2017-12-06T09:30:00Z,30.2513,-88.0778,2.291,8.3,1111122 
DISL,ioos:station:DISL:DISL:1,2017-12-06T10:30:00Z,30.2513,-88.0778,2.21,8.19,1111122 
DISL,ioos:station:DISL:DISL:1,2017-12-06T11:30:00Z,30.2513,-88.0778,2.135,8.2,1111122 
DISL,ioos:station:DISL:DISL:1,2017-12-06T12:30:00Z,30.2513,-88.0778,2.022,8.2,1111122 
DISL,ioos:station:DISL:DISL:1,2017-12-06T13:00:00Z,30.2513,-88.0778,2.001,8.15,1111122 
DISL,ioos:station:DISL:DISL:1,2017-12-06T14:00:00Z,30.2513,-88.0778,1.981,8.27,1111122 
DISL,ioos:station:DISL:DISL:1,2017-12-06T15:30:00Z,30.2513,-88.0778,1.929,8.47,1111122 
DISL,ioos:station:DISL:DISL:1,2017-12-06T16:00:00Z,30.2513,-88.0778,1.912,8.47,1111122 
DISL,ioos:station:DISL:DISL:1,2017-12-06T17:30:00Z,30.2513,-88.0778,1.828,8.59,1111122 
DISL,ioos:station:DISL:DISL:1,2017-12-06T18:30:00Z,30.2513,-88.0778,1.797,8.35,1111122 
DISL,ioos:station:DISL:DISL:1,2017-12-06T19:30:00Z,30.2513,-88.0778,1.859,8.36,1111122 
DISL,ioos:station:DISL:DISL:1,2017-12-06T20:30:00Z,30.2513,-88.0778,1.882,8.3,1111122 
DISL,ioos:station:DISL:DISL:1,2017-12-06T21:30:00Z,30.2513,-88.0778,1.935,8.26,1111122 
DISL,ioos:station:DISL:DISL:1,2017-12-06T22:30:00Z,30.2513,-88.0778,2.02,8.29,1111122 
DISL,ioos:station:DISL:DISL:1,2017-12-06T23:30:00Z,30.2513,-88.0778,2.061,8.33,1111122 
DISL,ioos:station:DISL:DISL:1,2017-12-07T00:30:00Z,30.2513,-88.0778,2.115,8.76,1111122 
DISL,ioos:station:DISL:DISL:1,2017-12-07T01:30:00Z,30.2513,-88.0778,2.167,8.85,1111122 
DISL,ioos:station:DISL:DISL:1,2017-12-07T02:30:00Z,30.2513,-88.0778,2.186,7.49,1111122 
DISL,ioos:station:DISL:DISL:1,2017-12-07T03:30:00Z,30.2513,-88.0778,2.21,6.89,1111122 
DISL,ioos:station:DISL:DISL:1,2017-12-07T04:30:00Z,30.2513,-88.0778,2.283,7.01,1111122 
DISL,ioos:station:DISL:DISL:1,2017-12-07T05:30:00Z,30.2513,-88.0778,2.31,7.85,1111122 
DISL,ioos:station:DISL:DISL:1,2017-12-07T06:30:00Z,30.2513,-88.0778,2.332,8.91,1111122 
DISL,ioos:station:DISL:DISL:1,2017-12-07T07:30:00Z,30.2513,-88.0778,2.327,7.71,1111122 
DISL,ioos:station:DISL:DISL:1,2017-12-07T08:30:00Z,30.2513,-88.0778,2.28,8.92,1111122 
DISL,ioos:station:DISL:DISL:1,2017-12-07T09:30:00Z,30.2513,-88.0778,2.245,8.93,1111122 
DISL,ioos:station:DISL:DISL:1,2017-12-07T10:30:00Z,30.2513,-88.0778,2.194,9.02,1111122 
DISL,ioos:station:DISL:DISL:1,2017-12-07T11:30:00Z,30.2513,-88.0778,2.142,9.07,1111122 
DISL,ioos:station:DISL:DISL:1,2017-12-07T12:30:00Z,30.2513,-88.0778,2.069,9.12,1111122 
DISL,ioos:station:DISL:DISL:1,2017-12-07T13:30:00Z,30.2513,-88.0778,2.033,8.8,1111122 
DISL,ioos:station:DISL:DISL:1,2017-12-07T14:30:00Z,30.2513,-88.0778,1.934,8.75,1111122 
DISL,ioos:station:DISL:DISL:1,2017-12-07T15:30:00Z,30.2513,-88.0778,1.867,8.66,1111122 
DISL,ioos:station:DISL:DISL:1,2017-12-07T16:30:00Z,30.2513,-88.0778,1.865,8.7,1111122 
DISL,ioos:station:DISL:DISL:1,2017-12-07T17:30:00Z,30.2513,-88.0778,1.843,8.71,1111122 
DISL,ioos:station:DISL:DISL:1,2017-12-07T18:30:00Z,30.2513,-88.0778,1.791,8.74,1111122 
DISL,ioos:station:DISL:DISL:1,2017-12-07T19:30:00Z,30.2513,-88.0778,1.887,8.87,1111122 
DISL,ioos:station:DISL:DISL:1,2017-12-07T20:00:00Z,30.2513,-88.0778,1.866,8.94,1111122 
DISL,ioos:station:DISL:DISL:1,2017-12-07T22:30:00Z,30.2513,-88.0778,1.977,9.04,1111122 
DISL,ioos:station:DISL:DISL:1,2017-12-07T23:30:00Z,30.2513,-88.0778,2.028,9.12,1111122 
DISL,ioos:station:DISL:DISL:1,2017-12-08T00:30:00Z,30.2513,-88.0778,2.024,8.98,1111122 
DISL,ioos:station:DISL:DISL:1,2017-12-08T01:30:00Z,30.2513,-88.0778,2.072,7.55,1111122 
DISL,ioos:station:DISL:DISL:1,2017-12-08T02:30:00Z,30.2513,-88.0778,2.175,8.2,1111122 
DISL,ioos:station:DISL:DISL:1,2017-12-08T03:30:00Z,30.2513,-88.0778,2.24,8.81,1111122 
DISL,ioos:station:DISL:DISL:1,2017-12-08T04:00:00Z,30.2513,-88.0778,2.259,9.07,1111122 
DISL,ioos:station:DISL:DISL:1,2017-12-08T05:30:00Z,30.2513,-88.0778,2.314,9.22,1111122 
DISL,ioos:station:DISL:DISL:1,2017-12-08T06:30:00Z,30.2513,-88.0778,2.317,9.44,1111122 
DISL,ioos:station:DISL:DISL:1,2017-12-08T07:30:00Z,30.2513,-88.0778,2.339,9.46,1111122 
DISL,ioos:station:DISL:DISL:1,2017-12-08T08:30:00Z,30.2513,-88.0778,2.348,9.55,1111122 
DISL,ioos:station:DISL:DISL:1,2017-12-08T09:30:00Z,30.2513,-88.0778,2.312,9.58,1111122 
DISL,ioos:station:DISL:DISL:1,2017-12-08T10:30:00Z,30.2513,-88.0778,2.237,9.65,1111122 
DISL,ioos:station:DISL:DISL:1,2017-12-08T11:30:00Z,30.2513,-88.0778,2.201,9.67,1111122 
DISL,ioos:station:DISL:DISL:1,2017-12-08T12:30:00Z,30.2513,-88.0778,2.179,9.58,1111122 
DISL,ioos:station:DISL:DISL:1,2017-12-08T13:30:00Z,30.2513,-88.0778,2.09,9.51,1111122 
DISL,ioos:station:DISL:DISL:1,2017-12-08T14:30:00Z,30.2513,-88.0778,2.043,9.4,1111122 
DISL,ioos:station:DISL:DISL:1,2017-12-08T15:30:00Z,30.2513,-88.0778,1.96,9.43,1111122 
DISL,ioos:station:DISL:DISL:1,2017-12-08T16:30:00Z,30.2513,-88.0778,1.928,9.51,1111122 
DISL,ioos:station:DISL:DISL:1,2017-12-08T17:30:00Z,30.2513,-88.0778,1.909,9.41,1111122 
DISL,ioos:station:DISL:DISL:1,2017-12-08T18:30:00Z,30.2513,-88.0778,1.911,9.5,1111122 
DISL,ioos:station:DISL:DISL:1,2017-12-08T19:30:00Z,30.2513,-88.0778,1.889,9.09,1111122 
DISL,ioos:station:DISL:DISL:1,2017-12-08T20:30:00Z,30.2513,-88.0778,1.912,9.52,1111122 
DISL,ioos:station:DISL:DISL:1,2017-12-08T21:30:00Z,30.2513,-88.0778,1.957,9.56,1111122 
DISL,ioos:station:DISL:DISL:1,2017-12-08T22:30:00Z,30.2513,-88.0778,2.014,9.31,1111122 
DISL,ioos:station:DISL:DISL:1,2017-12-08T23:30:00Z,30.2513,-88.0778,2.027,9.74,1111122 
DISL,ioos:station:DISL:DISL:1,2017-12-09T00:30:00Z,30.2513,-88.0778,2.049,9.76,1111122 
DISL,ioos:station:DISL:DISL:1,2017-12-09T01:30:00Z,30.2513,-88.0778,2.056,9.88,1111122 
DISL,ioos:station:DISL:DISL:1,2017-12-09T02:30:00Z,30.2513,-88.0778,2.125,7.99,1111122 
DISL,ioos:station:DISL:DISL:1,2017-12-09T03:30:00Z,30.2513,-88.0778,2.161,7.81,1111122 
DISL,ioos:station:DISL:DISL:1,2017-12-09T04:30:00Z,30.2513,-88.0778,2.189,9.18,1111122 
DISL,ioos:station:DISL:DISL:1,2017-12-09T05:30:00Z,30.2513,-88.0778,2.222,8.77,1111122 
DISL,ioos:station:DISL:DISL:1,2017-12-09T06:30:00Z,30.2513,-88.0778,2.245,9.14,1111122 
DISL,ioos:station:DISL:DISL:1,2017-12-09T07:30:00Z,30.2513,-88.0778,2.188,9.86,1111122 
DISL,ioos:station:DISL:DISL:1,2017-12-09T08:30:00Z,30.2513,-88.0778,2.171,9.95,1111122 
DISL,ioos:station:DISL:DISL:1,2017-12-09T09:30:00Z,30.2513,-88.0778,2.167,9.88,1111122 
DISL,ioos:station:DISL:DISL:1,2017-12-09T10:30:00Z,30.2513,-88.0778,2.117,9.9,1111122 
DISL,ioos:station:DISL:DISL:1,2017-12-09T11:30:00Z,30.2513,-88.0778,2.075,9.91,1111122 
DISL,ioos:station:DISL:DISL:1,2017-12-09T12:30:00Z,30.2513,-88.0778,2.018,9.91,1111122 
DISL,ioos:station:DISL:DISL:1,2017-12-09T13:30:00Z,30.2513,-88.0778,1.941,9.98,1111122 
DISL,ioos:station:DISL:DISL:1,2017-12-09T14:30:00Z,30.2513,-88.0778,1.928,10.1,1111122 
DISL,ioos:station:DISL:DISL:1,2017-12-09T15:30:00Z,30.2513,-88.0778,1.871,10.12,1111122 
DISL,ioos:station:DISL:DISL:1,2017-12-09T16:30:00Z,30.2513,-88.0778,1.832,10.25,1111122 
DISL,ioos:station:DISL:DISL:1,2017-12-09T17:30:00Z,30.2513,-88.0778,1.819,10.23,1111122 
DISL,ioos:station:DISL:DISL:1,2017-12-09T18:30:00Z,30.2513,-88.0778,1.791,10.08,1111122 
DISL,ioos:station:DISL:DISL:1,2017-12-09T19:30:00Z,30.2513,-88.0778,1.785,10.35,1111122 
DISL,ioos:station:DISL:DISL:1,2017-12-09T20:30:00Z,30.2513,-88.0778,1.78,10.52,1111122 
DISL,ioos:station:DISL:DISL:1,2017-12-09T21:30:00Z,30.2513,-88.0778,1.797,10.59,1111122 
DISL,ioos:station:DISL:DISL:1,2017-12-09T22:30:00Z,30.2513,-88.0778,1.811,10.65,1111122 
DISL,ioos:station:DISL:DISL:1,2017-12-09T23:30:00Z,30.2513,-88.0778,1.833,10.51,1111122 
DISL,ioos:station:DISL:DISL:1,2017-12-10T00:00:00Z,30.2513,-88.0778,1.84,10.62,1111122 
DISL,ioos:station:DISL:DISL:1,2017-12-10T01:00:00Z,30.2513,-88.0778,1.872,10.74,1111122 
DISL,ioos:station:DISL:DISL:1,2017-12-10T02:30:00Z,30.2513,-88.0778,1.886,10.64,1111122 
DISL,ioos:station:DISL:DISL:1,2017-12-10T03:30:00Z,30.2513,-88.0778,1.884,10.63,1111122 
DISL,ioos:station:DISL:DISL:1,2017-12-10T04:30:00Z,30.2513,-88.0778,1.893,10.6,1111122 
DISL,ioos:station:DISL:DISL:1,2017-12-10T05:30:00Z,30.2513,-88.0778,1.913,10.54,1111122 
DISL,ioos:station:DISL:DISL:1,2017-12-10T06:30:00Z,30.2513,-88.0778,1.914,10.34,1111122 
DISL,ioos:station:DISL:DISL:1,2017-12-10T07:30:00Z,30.2513,-88.0778,1.913,10.27,1111122 
DISL,ioos:station:DISL:DISL:1,2017-12-10T08:00:00Z,30.2513,-88.0778,1.912,10.22,1111122 
DISL,ioos:station:DISL:DISL:1,2017-12-10T09:30:00Z,30.2513,-88.0778,1.904,10.15,1111122 
DISL,ioos:station:DISL:DISL:1,2017-12-10T10:30:00Z,30.2513,-88.0778,1.893,10.17,1111122 
DISL,ioos:station:DISL:DISL:1,2017-12-10T11:30:00Z,30.2513,-88.0778,1.858,10.16,1111122 
DISL,ioos:station:DISL:DISL:1,2017-12-10T12:30:00Z,30.2513,-88.0778,1.828,10.31,1111122 
DISL,ioos:station:DISL:DISL:1,2017-12-10T13:30:00Z,30.2513,-88.0778,1.801,10.31,1111122 
DISL,ioos:station:DISL:DISL:1,2017-12-10T14:30:00Z,30.2513,-88.0778,1.759,10.17,1111122 
DISL,ioos:station:DISL:DISL:1,2017-12-10T15:30:00Z,30.2513,-88.0778,1.746,9.97,1111122 
DISL,ioos:station:DISL:DISL:1,2017-12-10T16:30:00Z,30.2513,-88.0778,1.722,10.03,1111122 
DISL,ioos:station:DISL:DISL:1,2017-12-10T17:30:00Z,30.2513,-88.0778,1.724,10.19,1111122 
DISL,ioos:station:DISL:DISL:1,2017-12-10T18:30:00Z,30.2513,-88.0778,1.72,10.23,1111122 
DISL,ioos:station:DISL:DISL:1,2017-12-10T19:30:00Z,30.2513,-88.0778,1.749,10.16,1111122 
DISL,ioos:station:DISL:DISL:1,2017-12-10T20:30:00Z,30.2513,-88.0778,1.77,10.13,1111122 
DISL,ioos:station:DISL:DISL:1,2017-12-10T21:30:00Z,30.2513,-88.0778,1.79,10.21,1111122 
DISL,ioos:station:DISL:DISL:1,2017-12-10T22:30:00Z,30.2513,-88.0778,1.816,10.53,1111122 
DISL,ioos:station:DISL:DISL:1,2017-12-10T23:30:00Z,30.2513,-88.0778,1.835,10.71,1111122 
DISL,ioos:station:DISL:DISL:1,2017-12-11T00:30:00Z,30.2513,-88.0778,1.873,10.12,1111122 
DISL,ioos:station:DISL:DISL:1,2017-12-11T01:30:00Z,30.2513,-88.0778,1.913,10.01,1111122 
DISL,ioos:station:DISL:DISL:1,2017-12-11T02:30:00Z,30.2513,-88.0778,1.917,10.29,1111122 
DISL,ioos:station:DISL:DISL:1,2017-12-11T03:30:00Z,30.2513,-88.0778,1.944,10.85,1111122 
DISL,ioos:station:DISL:DISL:1,2017-12-11T04:30:00Z,30.2513,-88.0778,1.921,11.24,1111122 
DISL,ioos:station:DISL:DISL:1,2017-12-11T05:30:00Z,30.2513,-88.0778,1.915,11.12,1111122 
DISL,ioos:station:DISL:DISL:1,2017-12-11T06:30:00Z,30.2513,-88.0778,1.9,11.17,1111122 
DISL,ioos:station:DISL:DISL:1,2017-12-11T07:30:00Z,30.2513,-88.0778,1.867,11.18,1111122 
DISL,ioos:station:DISL:DISL:1,2017-12-11T08:30:00Z,30.2513,-88.0778,1.849,10.9,1111122 
DISL,ioos:station:DISL:DISL:1,2017-12-11T09:30:00Z,30.2513,-88.0778,1.817,10.62,1111122 
DISL,ioos:station:DISL:DISL:1,2017-12-11T10:30:00Z,30.2513,-88.0778,1.83,10.24,1111122 
DISL,ioos:station:DISL:DISL:1,2017-12-11T11:30:00Z,30.2513,-88.0778,1.774,10.09,1111122 
DISL,ioos:station:DISL:DISL:1,2017-12-11T12:30:00Z,30.2513,-88.0778,1.782,10.06,1111122 
DISL,ioos:station:DISL:DISL:1,2017-12-11T13:30:00Z,30.2513,-88.0778,1.778,9.98,1111122 
DISL,ioos:station:DISL:DISL:1,2017-12-11T14:30:00Z,30.2513,-88.0778,1.794,10.05,1111122 
DISL,ioos:station:DISL:DISL:1,2017-12-11T15:30:00Z,30.2513,-88.0778,1.765,10.13,1111122 
DISL,ioos:station:DISL:DISL:1,2017-12-11T16:30:00Z,30.2513,-88.0778,1.758,10.4,1111122 
DISL,ioos:station:DISL:DISL:1,2017-12-11T17:30:00Z,30.2513,-88.0778,1.763,10.55,1111122 
DISL,ioos:station:DISL:DISL:1,2017-12-11T18:30:00Z,30.2513,-88.0778,1.822,10.52,1111122 
DISL,ioos:station:DISL:DISL:1,2017-12-11T19:30:00Z,30.2513,-88.0778,1.805,10.46,1111122 
DISL,ioos:station:DISL:DISL:1,2017-12-11T20:30:00Z,30.2513,-88.0778,1.881,10.93,1111122 
DISL,ioos:station:DISL:DISL:1,2017-12-11T21:30:00Z,30.2513,-88.0778,1.854,11.22,1111122 
DISL,ioos:station:DISL:DISL:1,2017-12-11T22:30:00Z,30.2513,-88.0778,1.897,11.13,1111122 
DISL,ioos:station:DISL:DISL:1,2017-12-11T23:30:00Z,30.2513,-88.0778,1.924,10.26,1111122 
DISL,ioos:station:DISL:DISL:1,2017-12-12T00:30:00Z,30.2513,-88.0778,1.953,9.86,1111122 
DISL,ioos:station:DISL:DISL:1,2017-12-12T01:30:00Z,30.2513,-88.0778,1.977,9.78,1111122 
DISL,ioos:station:DISL:DISL:1,2017-12-12T02:30:00Z,30.2513,-88.0778,1.999,10.04,1111122 
DISL,ioos:station:DISL:DISL:1,2017-12-12T03:30:00Z,30.2513,-88.0778,2.023,10.83,1111122 
DISL,ioos:station:DISL:DISL:1,2017-12-12T04:30:00Z,30.2513,-88.0778,2.012,11.01,1111122 
DISL,ioos:station:DISL:DISL:1,2017-12-12T05:30:00Z,30.2513,-88.0778,2.0,10.9,1111122 
DISL,ioos:station:DISL:DISL:1,2017-12-12T06:30:00Z,30.2513,-88.0778,1.982,10.85,1111122 
DISL,ioos:station:DISL:DISL:1,2017-12-12T07:30:00Z,30.2513,-88.0778,1.981,10.66,1111122 
DISL,ioos:station:DISL:DISL:1,2017-12-12T08:30:00Z,30.2513,-88.0778,1.952,9.28,1111122 
DISL,ioos:station:DISL:DISL:1,2017-12-12T09:30:00Z,30.2513,-88.0778,1.927,9.39,1111122 